Flag for United Kingdom Weather past 2 weeks in Preston, England, United Kingdom

Now
46 °F

Light rain. Scattered clouds.


Feels Like: 38 °F
Forecast: 40 / 46 °F
Wind: 22 mph from West

Location: Blackpool Airport

Current Time: Apr 1, 2015 at 6:10:51 PM

Latest Report: Apr 1, 2015 at 4:50 PM


Visibility: N/A

Pressure: 30.09 "Hg

Humidity: 82%

Dew point: 41 °F

Location of PrestonLocation

Historic Weather in Preston — Graph

°F

Preston temperature yesterday

Maximum temperature yesterday: 46 °F (at 9:20 AM)
Minimum temperature yesterday: 41 °F (at 1:20 PM)
Average temperature yesterday: 44 °F

Past Weeks' High & Low Weather Summary

 TemperatureHumidityPressure
High52 °F (Mar 28, 11:20 AM)100% (Mar 18, 6:20 AM)30.60 "Hg (Mar 18, 6:20 AM)
Low28 °F (Mar 22, 6:20 AM)54% (Mar 21, 12:20 PM)29.24 "Hg (Mar 29, 10:20 AM)
Average45 °F79%29.99 "Hg
* Reported Mar 17 3:50 PM — Apr 1 4:50 PM, Preston, Weather by CustomWeather, © 2015

Note: Actual official high and low records may vary slightly from our data, if they occured in-between our weather recording intervals... More about our weather records

Advertising

Preston weather history for previous 24 hours

 ConditionsComfort  
Time TempWeatherWind HumidityBarometerVisibility
4:50 PM
Wed, Apr 1
46 °FLight rain. Scattered clouds.22 mph82%30.09 "HgN/A
4:20 PM46 °FLight rain. Scattered clouds.25 mph82%30.09 "HgN/A
3:50 PM46 °FLight rain. Passing clouds.25 mph82%30.09 "HgN/A
3:20 PM46 °FPassing clouds.26 mph76%30.12 "HgN/A
2:50 PM46 °FPassing clouds.28 mph76%30.12 "HgN/A
2:20 PM46 °FPassing clouds.25 mph76%30.15 "HgN/A
1:50 PM45 °FScattered clouds.25 mph76%30.15 "HgN/A
1:20 PM46 °FScattered clouds.28 mph71%30.15 "HgN/A
12:50 PM45 °FScattered clouds.29 mph81%30.15 "HgN/A
12:20 PM45 °FScattered clouds.28 mph76%30.15 "HgN/A
11:50 AM45 °FPassing clouds.25 mph81%30.15 "HgN/A
11:20 AM45 °FScattered clouds.29 mph81%30.15 "HgN/A
10:50 AM45 °FScattered clouds.28 mph76%30.15 "HgN/A
10:20 AM45 °FScattered clouds.28 mph76%30.15 "HgN/A
9:50 AM45 °FScattered clouds.28 mph71%30.15 "HgN/A
9:20 AM43 °FScattered clouds.26 mph81%30.15 "HgN/A
8:50 AM43 °FScattered clouds.25 mph81%30.15 "HgN/A
7:50 AM43 °FScattered clouds.28 mph81%30.12 "HgN/A
7:20 AM43 °FPassing clouds.24 mph76%30.12 "HgN/A
6:50 AM43 °FPassing clouds.26 mph76%30.12 "HgN/A
6:20 AM43 °FPassing clouds.28 mph76%30.12 "HgN/A
8:50 PM
Tue, Mar 31
41 °FScattered showers. Passing clouds.25 mph76%29.92 "HgN/A
8:20 PM43 °FScattered showers. Passing clouds.29 mph71%29.92 "HgN/A
7:50 PM41 °FScattered showers. Passing clouds.24 mph76%29.92 "HgN/A
7:20 PM41 °FScattered showers. Passing clouds.32 mph76%29.89 "HgN/A
6:50 PM43 °FScattered showers. Passing clouds.32 mph76%29.89 "HgN/A
6:20 PM43 °FScattered showers. Passing clouds.30 mph71%29.86 "HgN/A
Weather by CustomWeather, © 2015

See weather overviewHow to use our weather pages